Home   Weather   Jersey City   Past weeks

Flag for USA Past Weather in Jersey City, New Jersey, USA — Yesterday and Last 2 Weeks

37 °F

Passing clouds.

Feels Like: 32 °F
Forecast: 39 / 50 °F
Wind: 7 mph from West

Location: Newark International Airport

Current Time: Oct 26, 2016 at 7:36:32 AM

Latest Report: Oct 26, 2016 at 6:51 AM

Visibility: 10 mi

Pressure: 30.42 "Hg

Humidity: 67%

Dew Point: 27 °F

Location of Jersey CityLocation

Past Weather in Jersey City — Graph


Jersey City Temperature Yesterday

Maximum temperature yesterday: 53 °F (at 4:51 PM)
Minimum temperature yesterday: 43 °F (at 11:51 PM)
Average temperature yesterday: 48 °F

High & Low Weather Summary for the Past Weeks

High86 °F (Oct 19, 3:51 PM)97% (Oct 21, 5:51 AM)30.47 "Hg (Oct 21, 5:51 AM)
Low37 °F (Oct 26, 5:51 AM)27% (Oct 24, 3:51 PM)29.41 "Hg (Oct 22, 7:51 AM)
Average60 °F66%30.05 "Hg
* Reported Oct 11 5:51 AM — Oct 26 5:51 AM, Jersey City, Weather by CustomWeather, © 2016

Note: Actual official high and low records may vary slightly from our data, if they occured in-between our weather recording intervals... More about our weather records


Jersey City Weather History for the Previous 24 Hours

Scroll right to see more
Time TempWeatherWind HumidityBarometerVisibility
5:51 AM
Wed, Oct 26
37 °FClear.10 mph70%30.40 "Hg10 mi
4:51 AM38 °FClear.7 mph65%30.38 "Hg10 mi
3:51 AM39 °FClear.9 mph62%30.37 "Hg10 mi
2:51 AM39 °FPassing clouds.8 mph62%30.37 "Hg10 mi
1:51 AM41 °FPassing clouds.7 mph58%30.37 "Hg10 mi
12:51 AM42 °FClear.10 mph53%30.37 "Hg10 mi
11:51 PM
Tue, Oct 25
43 °FClear.8 mph51%30.37 "Hg10 mi
10:51 PM45 °FPassing clouds.10 mph45%30.36 "Hg10 mi
9:51 PM46 °FPassing clouds.9 mph44%30.35 "Hg10 mi
8:51 PM47 °FPassing clouds.10 mph44%30.33 "Hg10 mi
7:51 PM48 °FPassing clouds.12 mph44%30.30 "Hg10 mi
6:51 PM49 °FPassing clouds.15 mph43%30.27 "Hg10 mi
5:51 PM50 °FScattered clouds.15 mph41%30.24 "Hg10 mi
4:51 PM53 °FPartly sunny.18 mph38%30.22 "Hg10 mi
3:51 PM51 °FPartly sunny.20 mph39%30.21 "Hg10 mi
2:51 PM52 °FScattered clouds.14 mph43%30.21 "Hg10 mi
1:51 PM50 °FPartly sunny.17 mph43%30.21 "Hg10 mi
12:51 PM50 °FPartly sunny.20 mph46%30.22 "Hg10 mi
11:51 AM50 °FPartly sunny.16 mph54%30.22 "Hg10 mi
10:51 AM51 °FPartly sunny.16 mph44%30.21 "Hg10 mi
9:51 AM49 °FPartly sunny.10 mph46%30.22 "Hg10 mi
8:51 AM48 °FPartly sunny.8 mph52%30.22 "Hg10 mi
7:51 AM47 °FPartly sunny.9 mph59%30.22 "Hg10 mi
Weather by CustomWeather, © 2016

See weather overviewHow to use our weather pages